• In Uzbekistan
  • List of Countries
  • For 7 days
  • Water Temperature
  • Satellite Maps
  • Weather Map
  • Weather Widgets
  • user-avatar
    Login

    Hourly Weather Elbasan

    Today, 19 January, Thursday

    Time Temperature Precipitation Wind Pressure Humidity
    00:00 +3°C° 0.6 mm 3 mps 736 mmHg 91%
    01:00 +3°C° 0.6 mm 3 mps 737 mmHg 92%
    02:00 +2°C° 0.2 mm 3 mps 737 mmHg 91%
    03:00 +2°C° 0.2 mm 3 mps 737 mmHg 91%
    04:00 +2°C° 0.2 mm 3 mps 737 mmHg 91%
    05:00 +2°C° 0 mm 3 mps 738 mmHg 90%
    06:00 +2°C° 0 mm 3 mps 738 mmHg 90%
    07:00 +1°C° 0 mm 3 mps 739 mmHg 90%
    08:00 +2°C° 0 mm 3 mps 739 mmHg 88%
    09:00 +3°C° 0 mm 3 mps 740 mmHg 86%
    10:00 +4°C° 0 mm 3 mps 740 mmHg 85%
    11:00 +5°C° 0 mm 3 mps 740 mmHg 84%
    12:00 +5°C° 0 mm 3 mps 740 mmHg 83%
    13:00 +7°C° 0 mm 3 mps 740 mmHg 82%
    14:00 +5°C° 0 mm 3 mps 740 mmHg 83%
    15:00 +5°C° 0 mm 3 mps 741 mmHg 84%
    16:00 +5°C° 0 mm 2 mps 741 mmHg 86%
    17:00 +3°C° 0 mm 3 mps 741 mmHg 87%
    18:00 +2°C° 0 mm 3 mps 741 mmHg 88%
    19:00 +1°C° 0 mm 3 mps 742 mmHg 89%
    20:00 0°C° 0 mm 3 mps 742 mmHg 89%
    21:00 0°C° 0 mm 3 mps 743 mmHg 89%
    22:00 0°C° 0 mm 3 mps 743 mmHg 89%
    23:00 0°C° 0 mm 3 mps 743 mmHg 89%

    Tomorrow, 20 January, Friday

    Time Temperature Precipitation Wind Pressure Humidity
    00:00 -1°C° 0 mm 3 mps 743 mmHg 88%
    01:00 -1°C° 0 mm 3 mps 744 mmHg 88%
    02:00 -1°C° 0 mm 3 mps 744 mmHg 88%
    03:00 -1°C° 0 mm 3 mps 744 mmHg 88%
    04:00 -1°C° 0 mm 3 mps 744 mmHg 88%
    05:00 -1°C° 0 mm 3 mps 744 mmHg 88%
    06:00 -1°C° 0 mm 3 mps 744 mmHg 87%
    07:00 -1°C° 0 mm 3 mps 744 mmHg 87%
    08:00 0°C° 0 mm 3 mps 745 mmHg 84%
    09:00 +3°C° 0 mm 2 mps 745 mmHg 82%
    10:00 +5°C° 0 mm 2 mps 745 mmHg 79%
    11:00 +5°C° 0 mm 2 mps 745 mmHg 78%
    12:00 +6°C° 0 mm 2 mps 745 mmHg 76%
    13:00 +7°C° 0 mm 2 mps 744 mmHg 75%
    14:00 +6°C° 0 mm 2 mps 744 mmHg 78%
    15:00 +6°C° 0 mm 2 mps 744 mmHg 81%
    16:00 +5°C° 0 mm 2 mps 744 mmHg 84%
    17:00 +4°C° 0 mm 2 mps 744 mmHg 85%
    18:00 +2°C° 0 mm 2 mps 745 mmHg 87%
    19:00 +1°C° 0 mm 2 mps 745 mmHg 88%
    20:00 +1°C° 0 mm 2 mps 745 mmHg 88%
    21:00 -1°C° 0 mm 2 mps 745 mmHg 88%
    22:00 -1°C° 0 mm 2 mps 745 mmHg 88%
    23:00 -1°C° 0 mm 2 mps 745 mmHg 87%

    Day after tomorrow, 21 January, Saturday

    Time Temperature Precipitation Wind Pressure Humidity
    00:00 -2°C° 0 mm 2 mps 745 mmHg 87%
    01:00 -2°C° 0 mm 2 mps 745 mmHg 87%
    02:00 -2°C° 0 mm 2 mps 744 mmHg 87%
    03:00 -2°C° 0 mm 2 mps 744 mmHg 86%
    04:00 -2°C° 0 mm 2 mps 744 mmHg 86%
    05:00 -2°C° 0 mm 2 mps 744 mmHg 86%
    06:00 -2°C° 0 mm 2 mps 744 mmHg 85%
    07:00 -2°C° 0 mm 2 mps 744 mmHg 84%
    08:00 +1°C° 0 mm 2 mps 744 mmHg 81%
    09:00 +4°C° 0 mm 2 mps 744 mmHg 77%
    10:00 +6°C° 0 mm 2 mps 744 mmHg 74%
    11:00 +8°C° 0 mm 1 mps 744 mmHg 73%
    12:00 +8°C° 0 mm 1 mps 744 mmHg 72%
    13:00 +9°C° 0 mm 1 mps 743 mmHg 71%
    14:00 +8°C° 0 mm 1 mps 743 mmHg 76%
    15:00 +7°C° 0 mm 1 mps 743 mmHg 80%
    16:00 +6°C° 0 mm 1 mps 743 mmHg 84%
    17:00 +5°C° 0 mm 1 mps 743 mmHg 86%
    18:00 +3°C° 0 mm 2 mps 743 mmHg 87%
    19:00 +2°C° 0 mm 2 mps 743 mmHg 89%
    20:00 +1°C° 0 mm 2 mps 743 mmHg 88%
    21:00 +1°C° 0 mm 2 mps 743 mmHg 87%
    22:00 +1°C° 0 mm 2 mps 744 mmHg 86%
    23:00 -1°C° 0 mm 2 mps 744 mmHg 85%

    22 January, Sunday

    Time Temperature Precipitation Wind Pressure Humidity
    00:00 -1°C° 0 mm 2 mps 744 mmHg 84%
    01:00 -1°C° 0 mm 2 mps 744 mmHg 83%
    02:00 -1°C° 0 mm 2 mps 744 mmHg 83%
    03:00 -1°C° 0 mm 2 mps 744 mmHg 82%
    04:00 -1°C° 0 mm 2 mps 744 mmHg 82%
    05:00 -1°C° 0 mm 2 mps 744 mmHg 81%
    06:00 -1°C° 0 mm 2 mps 744 mmHg 81%
    07:00 -1°C° 0 mm 2 mps 744 mmHg 80%
    08:00 +2°C° 0 mm 2 mps 744 mmHg 77%
    09:00 +4°C° 0 mm 2 mps 745 mmHg 74%
    10:00 +6°C° 0 mm 2 mps 745 mmHg 72%
    11:00 +6°C° 0 mm 2 mps 745 mmHg 71%
    12:00 +7°C° 0 mm 2 mps 745 mmHg 71%
    13:00 +8°C° 0 mm 2 mps 744 mmHg 71%
    14:00 +7°C° 0 mm 2 mps 744 mmHg 74%
    15:00 +6°C° 0 mm 2 mps 744 mmHg 78%
    16:00 +5°C° 0 mm 2 mps 744 mmHg 81%
    17:00 +4°C° 0 mm 2 mps 744 mmHg 83%
    18:00 +2°C° 0 mm 3 mps 744 mmHg 84%
    19:00 +1°C° 0 mm 3 mps 745 mmHg 85%
    20:00 +1°C° 0 mm 3 mps 745 mmHg 85%
    21:00 +1°C° 0 mm 3 mps 745 mmHg 85%
    22:00 +1°C° 0 mm 3 mps 745 mmHg 84%
    23:00 0°C° 0 mm 3 mps 745 mmHg 84%

    23 January, Monday

    Time Temperature Precipitation Wind Pressure Humidity
    00:00 0°C° 0 mm 3 mps 745 mmHg 84%
    01:00 0°C° 0 mm 3 mps 745 mmHg 83%
    02:00 0°C° 0 mm 3 mps 745 mmHg 83%
    03:00 0°C° 0 mm 3 mps 744 mmHg 82%
    04:00 0°C° 0 mm 3 mps 744 mmHg 81%
    05:00 0°C° 0 mm 3 mps 744 mmHg 81%
    06:00 0°C° 0 mm 3 mps 744 mmHg 80%
    07:00 0°C° 0 mm 3 mps 744 mmHg 80%
    08:00 +1°C° 0 mm 3 mps 744 mmHg 78%
    09:00 +3°C° 0 mm 3 mps 744 mmHg 76%
    10:00 +4°C° 0 mm 3 mps 744 mmHg 73%
    11:00 +5°C° 0 mm 3 mps 743 mmHg 74%
    12:00 +7°C° 0 mm 3 mps 743 mmHg 75%
    13:00 +8°C° 0 mm 2 mps 742 mmHg 75%
    14:00 +7°C° 0 mm 2 mps 742 mmHg 78%
    15:00 +6°C° 0 mm 2 mps 742 mmHg 81%
    16:00 +6°C° 0 mm 2 mps 741 mmHg 84%
    17:00 +5°C° 0 mm 2 mps 741 mmHg 85%
    18:00 +4°C° 0 mm 2 mps 741 mmHg 86%
    19:00 +4°C° 0 mm 2 mps 741 mmHg 87%
    20:00 +4°C° 0 mm 2 mps 740 mmHg 87%
    21:00 +3°C° 0 mm 3 mps 740 mmHg 87%
    22:00 +3°C° 0 mm 3 mps 740 mmHg 86%
    23:00 +3°C° 0.2 mm 3 mps 739 mmHg 87%

    24 January, Tuesday

    Time Temperature Precipitation Wind Pressure Humidity
    00:00 +3°C° 0.2 mm 3 mps 738 mmHg 87%
    01:00 +3°C° 0.2 mm 3 mps 738 mmHg 88%
    02:00 +3°C° 0.4 mm 3 mps 737 mmHg 88%
    03:00 +3°C° 0.4 mm 3 mps 736 mmHg 88%
    04:00 +3°C° 0.4 mm 3 mps 735 mmHg 89%
    05:00 +3°C° 0.8 mm 3 mps 735 mmHg 89%
    06:00 +3°C° 0.8 mm 3 mps 734 mmHg 89%
    07:00 +3°C° 0.8 mm 3 mps 734 mmHg 90%
    08:00 +4°C° 0.4 mm 4 mps 734 mmHg 89%
    09:00 +4°C° 0.4 mm 4 mps 733 mmHg 88%
    10:00 +4°C° 0.4 mm 4 mps 733 mmHg 86%
    11:00 +5°C° 0.7 mm 3 mps 733 mmHg 87%
    12:00 +5°C° 0.7 mm 3 mps 732 mmHg 87%
    13:00 +5°C° 0.7 mm 3 mps 732 mmHg 87%
    14:00 +5°C° 0.1 mm 3 mps 732 mmHg 88%
    15:00 +5°C° 0.1 mm 3 mps 732 mmHg 88%
    16:00 +6°C° 0.1 mm 2 mps 732 mmHg 89%
    17:00 +5°C° 0 mm 2 mps 732 mmHg 90%
    18:00 +4°C° 0 mm 2 mps 732 mmHg 90%
    19:00 +4°C° 0 mm 2 mps 732 mmHg 91%
    20:00 +3°C° 0 mm 2 mps 732 mmHg 91%
    21:00 +3°C° 0 mm 2 mps 732 mmHg 91%
    22:00 +3°C° 0 mm 2 mps 732 mmHg 90%
    23:00 +3°C° 0 mm 2 mps 732 mmHg 90%
    Show more